This demonstration page uses our WeatherBlox Daily Observations layout. Learn more.

Left ArrowRight Arrow

44.8408, -93.29828

Hourly Observations for September 23, 2022

Temp ( °F °C ) Dew Point ( °F °C ) Humidity (%) Winds ( mph kmh ) Pressure ( in mb ) Visibility ( mi km ) Precip ( " mm )
12:53 am 00:53 Mostly Clear 53 11.7 41 5 63 63 SSE 9 15 30.18 1022 10 16 0.00 0.00
1:53 am 01:53 Mostly Clear 52 11.1 41 5 66 66 SSE 8 13 30.17 1022 10 16 0.00 0.00
2:53 am 02:53 Partly Cloudy 51 10.6 41 5 68 68 SSE 8 13 30.17 1022 10 16 0.00 0.00
3:53 am 03:53 Mostly Cloudy 51 10.6 41 5 68 68 SSE 8 13 30.16 1021 10 16 0.00 0.00
4:53 am 04:53 Mostly Cloudy 53 11.7 41 5 63 63 SSE 8 13 30.15 1021 10 16 0.00 0.00
5:53 am 05:53 Mostly Cloudy 53 11.7 41 5 63 63 SSE 8 13 30.13 1020 10 16 0.00 0.00
6:53 am 06:53 Mostly Cloudy 53 11.7 41 5 63 63 S 9 15 30.12 1020 10 16 0.00 0.00
7:53 am 07:53 Mostly Cloudy 53 11.7 41 5 63 63 S 14 22 30.11 1020 10 16 0.00 0.00
8:53 am 08:53 Cloudy 54 12.2 41 5 61 61 S 12 19 30.12 1020 10 16 0.00 0.00
9:53 am 09:53 Cloudy with Light Rain 55 12.8 43 6.1 64 64 S 10 17 30.10 1019 10 16 0.01 0.13
10:53 am 10:53 Cloudy with Light Rain 55 12.8 46 7.8 72 72 S 14 22 30.10 1019 10 16 0.01 0.25
11:53 am 11:53 Cloudy 54 12.2 49 9.4 83 83 S 9 15 30.10 1019 10 16 0.04 1.02
12:37 pm 12:37 Cloudy 54 12.2 49 9.4 83 83 SSE 13 20 30.04 1017 10 16 0.00 0.00
12:53 pm 12:53 Cloudy 55 12.8 49 9.4 80 80 S 10 17 30.04 1017 10 16 0.00 0.00
1:12 pm 13:12 Cloudy 55 12.8 49 9.4 80 80 SSW 12 19 30.06 1018 10 16 0.00 0.00
1:53 pm 13:53 Cloudy 55 12.8 48 8.9 77 77 S 14 22 30.06 1018 10 16 0.00 0.00
2:18 pm 14:18 Cloudy 55 12.8 48 8.9 77 77 S 10 17 30.04 1017 10 16 0.00 0.00
2:53 pm 14:53 Cloudy 56 13.3 48 8.9 75 75 S 13 20 30.02 1017 10 16 0.00 0.00
3:19 pm 15:19 Cloudy 56 13.3 48 8.9 75 75 S 13 20 30.00 1016 10 16 0.00 0.00
3:53 pm 15:53 Cloudy with Drizzle 55 12.8 49 9.4 80 80 SSE 17 28 29.99 1016 7 11 0.01 0.13
4:53 pm 16:53 Cloudy 55 12.8 49 9.4 80 80 SE 14 22 29.96 1015 10 16 0.01 0.13
5:53 pm 17:53 Cloudy 55 12.8 49 9.4 80 80 SE 15 24 29.95 1014 10 16 0.00 0.00
6:53 pm 18:53 Cloudy 55 12.8 48 8.9 77 77 SE 15 24 29.93 1013 10 16 0.00 0.00
7:28 pm 19:28 Cloudy with Light Rain 54 12.2 49 9.4 83 83 SSE 13 20 29.93 1014 7 11 0.01 0.25
7:53 pm 19:53 Cloudy with Light Rain 53 11.7 49 9.4 86 86 SSE 14 22 29.93 1013 8 13 0.02 0.51
8:53 pm 20:53 Cloudy 54 12.2 50 10 86 86 SE 10 17 29.92 1013 10 16 0.01 0.13
9:53 pm 21:53 Cloudy with Drizzle 54 12.2 49 9.4 83 83 SSE 12 19 29.91 1013 10 16 0.01 0.13
10:53 pm 22:53 Cloudy with Light Rain 53 11.7 50 10 89 89 S 12 19 29.91 1013 4 6 0.01 0.25
11:30 pm 23:30 Cloudy 53 11.7 50 10 89 89 SSE 9 15 29.90 1013 10 16 0.01 0.13
11:53 pm 23:53 Cloudy 53 11.7 51 10.6 93 93 SSE 8 13 29.90 1012 10 16 0.01 0.13

Powered by AerisWeather